contact:dominique.lefevre@mio.osupytheas.fr, maurice.libes@osupytheas.fr, didier.mallarino@osupytheas.fr
Project:EMSO http://www.emso-fr.org/EMSO-France
Depth: 2436.0 m
Title:EMSO Ligure Ouest : Data MII capteur MICROCAT
DateTime_Computer,Latitude,Longitude,Temperature,Conductivity,Pressure,DateTime_Instrument
DateTime_Computer,Latitude,Longitude,degC,S m-1,dbar,DateTime_Instrument
2021-10-30T00:02:38Z,42.805,6.029,13.3074,4.60049,2470.45,2021-10-30T02:04:03Z
2021-10-30T00:05:41Z,42.805,6.029,13.3067,4.60041,2470.413,2021-10-30T02:07:06Z
2021-10-30T00:08:44Z,42.805,6.029,13.3047,4.60046,2470.413,2021-10-30T02:10:09Z
2021-10-30T00:11:48Z,42.805,6.029,13.3054,4.60044,2470.427,2021-10-30T02:13:12Z
2021-10-30T00:14:51Z,42.805,6.029,13.3062,4.60054,2470.427,2021-10-30T02:16:15Z
2021-10-30T00:17:54Z,42.805,6.029,13.3076,4.60061,2470.427,2021-10-30T02:19:18Z
2021-10-30T00:20:57Z,42.805,6.029,13.3060,4.60054,2470.427,2021-10-30T02:22:22Z
2021-10-30T00:24:00Z,42.805,6.029,13.3059,4.60056,2470.427,2021-10-30T02:25:25Z
2021-10-30T00:27:03Z,42.805,6.029,13.3059,4.60077,2470.427,2021-10-30T02:28:28Z
2021-10-30T00:30:06Z,42.805,6.029,13.3063,4.60099,2470.404,2021-10-30T02:31:31Z
2021-10-30T00:33:09Z,42.805,6.029,13.3032,4.60086,2470.39,2021-10-30T02:34:34Z
2021-10-30T00:36:13Z,42.805,6.029,13.3051,4.60072,2470.45,2021-10-30T02:37:37Z
2021-10-30T00:39:16Z,42.805,6.029,13.3069,4.60089,2470.427,2021-10-30T02:40:40Z
2021-10-30T00:42:19Z,42.805,6.029,13.3089,4.60069,2470.39,2021-10-30T02:43:43Z
2021-10-30T00:45:22Z,42.805,6.029,13.3024,4.60074,2470.45,2021-10-30T02:46:47Z
2021-10-30T00:48:25Z,42.805,6.029,13.3031,4.60033,2470.413,2021-10-30T02:49:50Z
2021-10-30T00:51:28Z,42.805,6.029,13.3042,4.60043,2470.437,2021-10-30T02:52:53Z
2021-10-30T00:54:31Z,42.805,6.029,13.3052,4.60049,2470.437,2021-10-30T02:55:56Z
2021-10-30T00:57:34Z,42.805,6.029,13.3024,4.60064,2470.45,2021-10-30T02:58:59Z
2021-10-30T01:00:38Z,42.805,6.029,13.3048,4.60039,2470.413,2021-10-30T03:02:02Z
2021-10-30T01:03:41Z,42.805,6.029,13.3041,4.60097,2470.427,2021-10-30T03:05:05Z
2021-10-30T01:06:44Z,42.805,6.029,13.3031,4.60043,2470.427,2021-10-30T03:08:08Z
2021-10-30T01:09:47Z,42.805,6.029,13.3026,4.60049,2470.45,2021-10-30T03:11:12Z
2021-10-30T01:12:50Z,42.805,6.029,13.3041,4.60068,2470.427,2021-10-30T03:14:15Z
2021-10-30T01:15:53Z,42.805,6.029,13.3016,4.60076,2470.427,2021-10-30T03:17:18Z
2021-10-30T01:18:56Z,42.805,6.029,13.3024,4.60034,2470.45,2021-10-30T03:20:21Z
2021-10-30T01:21:59Z,42.805,6.029,13.3033,4.60041,2470.45,2021-10-30T03:23:24Z
2021-10-30T01:25:03Z,42.805,6.029,13.3015,4.60062,2470.46,2021-10-30T03:26:27Z
2021-10-30T01:28:06Z,42.805,6.029,13.3040,4.60046,2470.427,2021-10-30T03:29:30Z
2021-10-30T01:31:09Z,42.805,6.029,13.3058,4.60050,2470.45,2021-10-30T03:32:33Z
2021-10-30T01:34:12Z,42.805,6.029,13.3032,4.60045,2470.413,2021-10-30T03:35:37Z
2021-10-30T01:37:15Z,42.805,6.029,13.3048,4.60050,2470.413,2021-10-30T03:38:40Z
2021-10-30T01:40:18Z,42.805,6.029,13.3060,4.60085,2470.413,2021-10-30T03:41:43Z
2021-10-30T01:43:21Z,42.805,6.029,13.3063,4.60052,2470.427,2021-10-30T03:44:46Z
2021-10-30T01:46:24Z,42.805,6.029,13.3056,4.60063,2470.427,2021-10-30T03:47:49Z
2021-10-30T01:49:28Z,42.805,6.029,13.3022,4.60036,2470.413,2021-10-30T03:50:52Z
2021-10-30T01:52:31Z,42.805,6.029,13.3019,4.60049,2470.427,2021-10-30T03:53:55Z
2021-10-30T01:55:34Z,42.805,6.029,13.3077,4.60057,2470.413,2021-10-30T03:56:58Z
2021-10-30T01:58:37Z,42.805,6.029,13.3032,4.60071,2470.488,2021-10-30T04:00:02Z
2021-10-30T02:01:40Z,42.805,6.029,13.3035,4.60074,2470.39,2021-10-30T04:03:05Z
2021-10-30T02:04:43Z,42.805,6.029,13.3035,4.60035,2470.45,2021-10-30T04:06:08Z
2021-10-30T02:07:46Z,42.805,6.029,13.3034,4.60064,2470.45,2021-10-30T04:09:11Z
2021-10-30T02:10:49Z,42.805,6.029,13.3040,4.60039,2470.437,2021-10-30T04:12:14Z
2021-10-30T02:13:52Z,42.805,6.029,13.3015,4.60067,2470.46,2021-10-30T04:15:17Z
2021-10-30T02:16:56Z,42.805,6.029,13.3069,4.60039,2470.45,2021-10-30T04:18:20Z
2021-10-30T02:19:59Z,42.805,6.029,13.3029,4.60041,2470.404,2021-10-30T04:21:23Z
2021-10-30T02:23:02Z,42.805,6.029,13.3025,4.60052,2470.437,2021-10-30T04:24:26Z
2021-10-30T02:26:05Z,42.805,6.029,13.3054,4.60055,2470.437,2021-10-30T04:27:30Z
2021-10-30T02:29:08Z,42.805,6.029,13.3043,4.60046,2470.437,2021-10-30T04:30:33Z
2021-10-30T02:32:11Z,42.805,6.029,13.3048,4.60048,2470.46,2021-10-30T04:33:36Z
2021-10-30T02:35:14Z,42.805,6.029,13.3067,4.60052,2470.437,2021-10-30T04:36:39Z
2021-10-30T02:38:17Z,42.805,6.029,13.3058,4.60066,2470.423,2021-10-30T04:39:42Z
2021-10-30T02:41:21Z,42.805,6.029,13.3025,4.60067,2470.413,2021-10-30T04:42:45Z
2021-10-30T02:44:24Z,42.805,6.029,13.3044,4.60067,2470.404,2021-10-30T04:45:48Z
2021-10-30T02:47:27Z,42.805,6.029,13.3058,4.60051,2470.437,2021-10-30T04:48:51Z
2021-10-30T02:50:30Z,42.805,6.029,13.3032,4.60052,2470.39,2021-10-30T04:51:55Z
2021-10-30T02:53:33Z,42.805,6.029,13.3040,4.60057,2470.45,2021-10-30T04:54:58Z
2021-10-30T02:56:36Z,42.805,6.029,13.3063,4.60052,2470.413,2021-10-30T04:58:01Z
2021-10-30T02:59:39Z,42.805,6.029,13.3030,4.60067,2470.45,2021-10-30T05:01:04Z
2021-10-30T03:02:42Z,42.805,6.029,13.3050,4.60058,2470.427,2021-10-30T05:04:07Z
2021-10-30T03:05:46Z,42.805,6.029,13.3051,4.60081,2470.45,2021-10-30T05:07:10Z
2021-10-30T03:08:49Z,42.805,6.029,13.3054,4.60068,2470.437,2021-10-30T05:10:13Z
2021-10-30T03:11:52Z,42.805,6.029,13.3058,4.60063,2470.45,2021-10-30T05:13:16Z
2021-10-30T03:14:55Z,42.805,6.029,13.3031,4.60064,2470.45,2021-10-30T05:16:20Z
2021-10-30T03:17:58Z,42.805,6.029,13.3053,4.60050,2470.437,2021-10-30T05:19:23Z
2021-10-30T03:21:01Z,42.805,6.029,13.3058,4.60065,2470.45,2021-10-30T05:22:26Z
2021-10-30T03:24:04Z,42.805,6.029,13.3037,4.60051,2470.437,2021-10-30T05:25:29Z
2021-10-30T03:27:07Z,42.805,6.029,13.3050,4.60043,2470.45,2021-10-30T05:28:32Z
2021-10-30T03:30:11Z,42.805,6.029,13.3032,4.60061,2470.437,2021-10-30T05:31:35Z
2021-10-30T03:33:14Z,42.805,6.029,13.3058,4.60051,2470.437,2021-10-30T05:34:38Z
2021-10-30T03:36:17Z,42.805,6.029,13.3043,4.60057,2470.437,2021-10-30T05:37:41Z
2021-10-30T03:39:20Z,42.805,6.029,13.3040,4.60054,2470.45,2021-10-30T05:40:45Z
2021-10-30T03:42:23Z,42.805,6.029,13.3050,4.60049,2470.437,2021-10-30T05:43:48Z
2021-10-30T03:45:26Z,42.805,6.029,13.3067,4.60068,2470.413,2021-10-30T05:46:51Z
2021-10-30T03:48:29Z,42.805,6.029,13.3054,4.60057,2470.413,2021-10-30T05:49:54Z
2021-10-30T03:51:32Z,42.805,6.029,13.3067,4.60052,2470.427,2021-10-30T05:52:57Z
2021-10-30T03:54:36Z,42.805,6.029,13.3044,4.60074,2470.437,2021-10-30T05:56:00Z
2021-10-30T03:57:39Z,42.805,6.029,13.3041,4.60049,2470.45,2021-10-30T05:59:03Z
2021-10-30T04:00:42Z,42.805,6.029,13.3069,4.60054,2470.437,2021-10-30T06:02:06Z
2021-10-30T04:03:45Z,42.805,6.029,13.3037,4.60067,2470.413,2021-10-30T06:05:10Z
2021-10-30T04:06:48Z,42.805,6.029,13.3028,4.60045,2470.45,2021-10-30T06:08:13Z
2021-10-30T04:09:51Z,42.805,6.029,13.3033,4.60065,2470.413,2021-10-30T06:11:16Z
2021-10-30T04:12:54Z,42.805,6.029,13.3031,4.60049,2470.437,2021-10-30T06:14:19Z
2021-10-30T04:15:57Z,42.805,6.029,13.3029,4.60046,2470.39,2021-10-30T06:17:22Z
2021-10-30T04:19:00Z,42.805,6.029,13.3038,4.60058,2470.427,2021-10-30T06:20:25Z
2021-10-30T04:22:04Z,42.805,6.029,13.3038,4.60064,2470.427,2021-10-30T06:23:28Z
2021-10-30T04:25:07Z,42.805,6.029,13.3034,4.60073,2470.437,2021-10-30T06:26:31Z
2021-10-30T04:28:10Z,42.805,6.029,13.3073,4.60045,2470.413,2021-10-30T06:29:35Z
2021-10-30T04:31:13Z,42.805,6.029,13.3016,4.60081,2470.427,2021-10-30T06:32:38Z
2021-10-30T04:34:16Z,42.805,6.029,13.3032,4.60029,2470.427,2021-10-30T06:35:41Z
2021-10-30T04:37:19Z,42.805,6.029,13.3020,4.60035,2470.437,2021-10-30T06:38:44Z
2021-10-30T04:40:22Z,42.805,6.029,13.3013,4.60031,2470.437,2021-10-30T06:41:47Z
2021-10-30T04:43:25Z,42.805,6.029,13.3014,4.60033,2470.437,2021-10-30T06:44:50Z
2021-10-30T04:46:29Z,42.805,6.029,13.3025,4.60049,2470.413,2021-10-30T06:47:53Z
2021-10-30T04:49:32Z,42.805,6.029,13.3031,4.60043,2470.38,2021-10-30T06:50:56Z
2021-10-30T04:52:35Z,42.805,6.029,13.3038,4.60057,2470.413,2021-10-30T06:54:00Z
2021-10-30T04:55:38Z,42.805,6.029,13.3039,4.60049,2470.413,2021-10-30T06:57:03Z
2021-10-30T04:58:41Z,42.805,6.029,13.3041,4.60071,2470.45,2021-10-30T07:00:06Z
2021-10-30T05:01:44Z,42.805,6.029,13.3043,4.60060,2470.427,2021-10-30T07:03:09Z
2021-10-30T05:04:47Z,42.805,6.029,13.3047,4.60042,2470.404,2021-10-30T07:06:12Z
2021-10-30T05:07:50Z,42.805,6.029,13.3051,4.60063,2470.404,2021-10-30T07:09:15Z
2021-10-30T05:10:54Z,42.805,6.029,13.3050,4.60062,2470.46,2021-10-30T07:12:18Z
2021-10-30T05:13:57Z,42.805,6.029,13.3046,4.60046,2470.404,2021-10-30T07:15:21Z
2021-10-30T05:17:00Z,42.805,6.029,13.3032,4.60068,2470.413,2021-10-30T07:18:24Z
2021-10-30T05:20:03Z,42.805,6.029,13.3032,4.60053,2470.413,2021-10-30T07:21:28Z
2021-10-30T05:23:06Z,42.805,6.029,13.3043,4.60061,2470.427,2021-10-30T07:24:31Z
2021-10-30T05:26:09Z,42.805,6.029,13.3043,4.60062,2470.427,2021-10-30T07:27:34Z
2021-10-30T05:29:12Z,42.805,6.029,13.3058,4.60074,2470.427,2021-10-30T07:30:37Z
2021-10-30T05:32:15Z,42.805,6.029,13.3048,4.60072,2470.413,2021-10-30T07:33:40Z
2021-10-30T05:35:19Z,42.805,6.029,13.3037,4.60047,2470.437,2021-10-30T07:36:43Z
2021-10-30T05:38:22Z,42.805,6.029,13.3062,4.60054,2470.427,2021-10-30T07:39:46Z
2021-10-30T05:41:25Z,42.805,6.029,13.3038,4.60029,2470.404,2021-10-30T07:42:49Z
2021-10-30T05:44:28Z,42.805,6.029,13.3067,4.60050,2470.437,2021-10-30T07:45:53Z
2021-10-30T05:47:31Z,42.805,6.029,13.3032,4.60052,2470.45,2021-10-30T07:48:56Z
2021-10-30T05:50:34Z,42.805,6.029,13.3043,4.60052,2470.413,2021-10-30T07:51:59Z
2021-10-30T05:53:37Z,42.805,6.029,13.3032,4.60039,2470.39,2021-10-30T07:55:02Z
2021-10-30T05:56:40Z,42.805,6.029,13.3019,4.60039,2470.437,2021-10-30T07:58:05Z
2021-10-30T05:59:44Z,42.805,6.029,13.3042,4.60040,2470.413,2021-10-30T08:01:08Z
2021-10-30T06:02:47Z,42.805,6.029,13.3030,4.60049,2470.39,2021-10-30T08:04:11Z
2021-10-30T06:05:50Z,42.805,6.029,13.3029,4.60039,2470.413,2021-10-30T08:07:14Z
2021-10-30T06:08:53Z,42.805,6.029,13.3038,4.60033,2470.413,2021-10-30T08:10:18Z
2021-10-30T06:11:56Z,42.805,6.029,13.3033,4.60049,2470.413,2021-10-30T08:13:21Z
2021-10-30T06:14:59Z,42.805,6.029,13.3034,4.60056,2470.427,2021-10-30T08:16:24Z
2021-10-30T06:18:02Z,42.805,6.029,13.3038,4.60051,2470.404,2021-10-30T08:19:27Z
2021-10-30T06:21:05Z,42.805,6.029,13.3024,4.60044,2470.404,2021-10-30T08:22:30Z
2021-10-30T06:24:09Z,42.805,6.029,13.3058,4.60049,2470.39,2021-10-30T08:25:33Z
2021-10-30T06:27:12Z,42.805,6.029,13.3034,4.60045,2470.427,2021-10-30T08:28:36Z
2021-10-30T06:30:15Z,42.805,6.029,13.3046,4.60039,2470.39,2021-10-30T08:31:39Z
2021-10-30T06:33:18Z,42.805,6.029,13.3034,4.60042,2470.413,2021-10-30T08:34:43Z
2021-10-30T06:36:21Z,42.805,6.029,13.3027,4.60044,2470.45,2021-10-30T08:37:46Z
2021-10-30T06:39:24Z,42.805,6.029,13.3036,4.60050,2470.45,2021-10-30T08:40:49Z
2021-10-30T06:42:27Z,42.805,6.029,13.3040,4.60032,2470.39,2021-10-30T08:43:52Z
2021-10-30T06:45:30Z,42.805,6.029,13.3017,4.60052,2470.427,2021-10-30T08:46:55Z
2021-10-30T06:48:34Z,42.805,6.029,13.3042,4.60045,2470.376,2021-10-30T08:49:58Z
2021-10-30T06:51:37Z,42.805,6.029,13.3037,4.60044,2470.413,2021-10-30T08:53:01Z
2021-10-30T06:54:40Z,42.805,6.029,13.3058,4.60044,2470.437,2021-10-30T08:56:04Z
2021-10-30T06:57:43Z,42.805,6.029,13.3019,4.60050,2470.413,2021-10-30T08:59:08Z
2021-10-30T07:00:46Z,42.805,6.029,13.3034,4.60044,2470.427,2021-10-30T09:02:11Z
2021-10-30T07:03:49Z,42.805,6.029,13.3023,4.60046,2470.413,2021-10-30T09:05:14Z
2021-10-30T07:06:52Z,42.805,6.029,13.3051,4.60060,2470.427,2021-10-30T09:08:17Z
2021-10-30T07:09:55Z,42.805,6.029,13.3036,4.60047,2470.39,2021-10-30T09:11:20Z
2021-10-30T07:12:58Z,42.805,6.029,13.3033,4.60049,2470.39,2021-10-30T09:14:23Z
2021-10-30T07:16:02Z,42.805,6.029,13.3035,4.60053,2470.437,2021-10-30T09:17:26Z
2021-10-30T07:19:05Z,42.805,6.029,13.3019,4.60044,2470.404,2021-10-30T09:20:29Z
2021-10-30T07:22:08Z,42.805,6.029,13.3039,4.60034,2470.427,2021-10-30T09:23:33Z
2021-10-30T07:25:11Z,42.805,6.029,13.3030,4.60040,2470.413,2021-10-30T09:26:36Z
2021-10-30T07:28:14Z,42.805,6.029,13.3032,4.60056,2470.404,2021-10-30T09:29:39Z
2021-10-30T07:31:17Z,42.805,6.029,13.3039,4.60036,2470.39,2021-10-30T09:32:42Z
2021-10-30T07:34:20Z,42.805,6.029,13.3021,4.60066,2470.39,2021-10-30T09:35:45Z
2021-10-30T07:37:23Z,42.805,6.029,13.3028,4.60064,2470.404,2021-10-30T09:38:48Z
2021-10-30T07:40:27Z,42.805,6.029,13.3050,4.60062,2470.39,2021-10-30T09:41:51Z
2021-10-30T07:43:30Z,42.805,6.029,13.3044,4.60045,2470.413,2021-10-30T09:44:54Z
2021-10-30T07:46:33Z,42.805,6.029,13.3051,4.60038,2470.39,2021-10-30T09:47:58Z
2021-10-30T07:49:36Z,42.805,6.029,13.3040,4.60052,2470.404,2021-10-30T09:51:01Z
2021-10-30T07:52:39Z,42.805,6.029,13.3040,4.60036,2470.427,2021-10-30T09:54:04Z
2021-10-30T07:55:42Z,42.805,6.029,13.3030,4.60033,2470.376,2021-10-30T09:57:07Z
2021-10-30T07:58:45Z,42.805,6.029,13.3015,4.60049,2470.427,2021-10-30T10:00:10Z
2021-10-30T08:01:48Z,42.805,6.029,13.3033,4.60055,2470.427,2021-10-30T10:03:13Z
2021-10-30T08:04:52Z,42.805,6.029,13.3032,4.60039,2470.413,2021-10-30T10:06:16Z
2021-10-30T08:07:55Z,42.805,6.029,13.3024,4.60034,2470.413,2021-10-30T10:09:19Z
2021-10-30T08:10:58Z,42.805,6.029,13.3030,4.60039,2470.39,2021-10-30T10:12:23Z
2021-10-30T08:14:01Z,42.805,6.029,13.3023,4.60045,2470.427,2021-10-30T10:15:26Z
2021-10-30T08:17:04Z,42.805,6.029,13.3030,4.60058,2470.437,2021-10-30T10:18:29Z
2021-10-30T08:20:07Z,42.805,6.029,13.3014,4.60029,2470.38,2021-10-30T10:21:32Z
2021-10-30T08:23:10Z,42.805,6.029,13.3027,4.60039,2470.427,2021-10-30T10:24:35Z
2021-10-30T08:26:13Z,42.805,6.029,13.3024,4.60042,2470.427,2021-10-30T10:27:38Z
2021-10-30T08:29:17Z,42.805,6.029,13.3027,4.60051,2470.45,2021-10-30T10:30:41Z
2021-10-30T08:32:20Z,42.805,6.029,13.3022,4.60043,2470.39,2021-10-30T10:33:44Z
2021-10-30T08:35:23Z,42.805,6.029,13.3025,4.60040,2470.39,2021-10-30T10:36:48Z
2021-10-30T08:38:26Z,42.805,6.029,13.3032,4.60043,2470.413,2021-10-30T10:39:51Z
2021-10-30T08:41:29Z,42.805,6.029,13.3046,4.60037,2470.45,2021-10-30T10:42:54Z
2021-10-30T08:44:32Z,42.805,6.029,13.3030,4.60050,2470.39,2021-10-30T10:45:57Z
2021-10-30T08:47:35Z,42.805,6.029,13.3026,4.60057,2470.413,2021-10-30T10:49:00Z
2021-10-30T08:50:39Z,42.805,6.029,13.3034,4.60043,2470.427,2021-10-30T10:52:03Z
2021-10-30T08:53:42Z,42.805,6.029,13.3032,4.60050,2470.427,2021-10-30T10:55:06Z
2021-10-30T08:56:45Z,42.805,6.029,13.3042,4.60042,2470.45,2021-10-30T10:58:09Z
2021-10-30T08:59:48Z,42.805,6.029,13.3019,4.60046,2470.437,2021-10-30T11:01:13Z
2021-10-30T09:02:51Z,42.805,6.029,13.3043,4.60032,2470.413,2021-10-30T11:04:16Z
2021-10-30T09:05:54Z,42.805,6.029,13.3043,4.60047,2470.45,2021-10-30T11:07:19Z
2021-10-30T09:08:57Z,42.805,6.029,13.3036,4.60053,2470.427,2021-10-30T11:10:22Z
2021-10-30T09:12:00Z,42.805,6.029,13.3032,4.60049,2470.427,2021-10-30T11:13:25Z
2021-10-30T09:15:04Z,42.805,6.029,13.3035,4.60042,2470.437,2021-10-30T11:16:28Z
2021-10-30T09:18:07Z,42.805,6.029,13.3024,4.60058,2470.427,2021-10-30T11:19:31Z
2021-10-30T09:21:10Z,42.805,6.029,13.3063,4.60031,2470.45,2021-10-30T11:22:34Z
2021-10-30T09:24:13Z,42.805,6.029,13.3026,4.60044,2470.427,2021-10-30T11:25:38Z
2021-10-30T09:27:16Z,42.805,6.029,13.3029,4.60047,2470.427,2021-10-30T11:28:41Z
2021-10-30T09:30:19Z,42.805,6.029,13.3015,4.60040,2470.427,2021-10-30T11:31:44Z
2021-10-30T09:33:22Z,42.805,6.029,13.3031,4.60036,2470.427,2021-10-30T11:34:47Z
2021-10-30T09:36:25Z,42.805,6.029,13.3030,4.60033,2470.45,2021-10-30T11:37:50Z
2021-10-30T09:39:29Z,42.805,6.029,13.3026,4.60031,2470.437,2021-10-30T11:40:53Z
2021-10-30T09:42:32Z,42.805,6.029,13.3026,4.60039,2470.45,2021-10-30T11:43:56Z
2021-10-30T09:45:35Z,42.805,6.029,13.3021,4.60042,2470.45,2021-10-30T11:47:00Z
2021-10-30T09:48:38Z,42.805,6.029,13.3032,4.60031,2470.413,2021-10-30T11:50:03Z
2021-10-30T09:51:41Z,42.805,6.029,13.3024,4.60031,2470.441,2021-10-30T11:53:06Z
2021-10-30T09:54:44Z,42.805,6.029,13.3032,4.60038,2470.404,2021-10-30T11:56:09Z
2021-10-30T09:57:47Z,42.805,6.029,13.3034,4.60039,2470.45,2021-10-30T11:59:12Z
2021-10-30T10:00:50Z,42.805,6.029,13.3038,4.60049,2470.437,2021-10-30T12:02:15Z
2021-10-30T10:03:54Z,42.805,6.029,13.3026,4.60050,2470.45,2021-10-30T12:05:18Z
2021-10-30T10:06:57Z,42.805,6.029,13.3039,4.60052,2470.427,2021-10-30T12:08:21Z
2021-10-30T10:10:00Z,42.805,6.029,13.3034,4.60050,2470.474,2021-10-30T12:11:25Z
2021-10-30T10:13:03Z,42.805,6.029,13.3042,4.60045,2470.474,2021-10-30T12:14:28Z
2021-10-30T10:16:06Z,42.805,6.029,13.3038,4.60069,2470.437,2021-10-30T12:17:31Z
2021-10-30T10:19:09Z,42.805,6.029,13.3039,4.60058,2470.437,2021-10-30T12:20:34Z
2021-10-30T10:22:12Z,42.805,6.029,13.3031,4.60048,2470.413,2021-10-30T12:23:37Z
2021-10-30T10:25:15Z,42.805,6.029,13.3040,4.60046,2470.437,2021-10-30T12:26:40Z
2021-10-30T10:28:19Z,42.805,6.029,13.3033,4.60046,2470.497,2021-10-30T12:29:43Z
2021-10-30T10:31:22Z,42.805,6.029,13.3029,4.60052,2470.483,2021-10-30T12:32:46Z
2021-10-30T10:34:25Z,42.805,6.029,13.3048,4.60050,2470.437,2021-10-30T12:35:50Z
2021-10-30T10:37:28Z,42.805,6.029,13.3026,4.60044,2470.437,2021-10-30T12:38:53Z
2021-10-30T10:40:31Z,42.805,6.029,13.3024,4.60044,2470.45,2021-10-30T12:41:56Z
2021-10-30T10:43:34Z,42.805,6.029,13.3016,4.60038,2470.423,2021-10-30T12:44:59Z
2021-10-30T10:46:37Z,42.805,6.029,13.3026,4.60038,2470.437,2021-10-30T12:48:02Z
2021-10-30T10:49:40Z,42.805,6.029,13.3037,4.60049,2470.423,2021-10-30T12:51:05Z
2021-10-30T10:52:44Z,42.805,6.029,13.3007,4.60039,2470.497,2021-10-30T12:54:08Z
2021-10-30T10:55:47Z,42.805,6.029,13.3026,4.60042,2470.474,2021-10-30T12:57:11Z
2021-10-30T10:58:50Z,42.805,6.029,13.3022,4.60038,2470.46,2021-10-30T13:00:15Z
2021-10-30T11:01:53Z,42.805,6.029,13.3024,4.60042,2470.474,2021-10-30T13:03:18Z
2021-10-30T11:04:56Z,42.805,6.029,13.3033,4.60032,2470.474,2021-10-30T13:06:21Z
2021-10-30T11:07:59Z,42.805,6.029,13.3032,4.60045,2470.46,2021-10-30T13:09:24Z
2021-10-30T11:11:02Z,42.805,6.029,13.3024,4.60049,2470.474,2021-10-30T13:12:27Z
2021-10-30T11:14:05Z,42.805,6.029,13.3031,4.60057,2470.46,2021-10-30T13:15:30Z
2021-10-30T11:17:09Z,42.805,6.029,13.3008,4.60038,2470.46,2021-10-30T13:18:33Z
2021-10-30T11:20:12Z,42.805,6.029,13.3020,4.60031,2470.497,2021-10-30T13:21:36Z
2021-10-30T11:23:15Z,42.805,6.029,13.3034,4.60044,2470.46,2021-10-30T13:24:40Z
2021-10-30T11:26:18Z,42.805,6.029,13.3040,4.60028,2470.483,2021-10-30T13:27:43Z
2021-10-30T11:29:21Z,42.805,6.029,13.3024,4.60051,2470.474,2021-10-30T13:30:46Z
2021-10-30T11:32:24Z,42.805,6.029,13.3022,4.60053,2470.46,2021-10-30T13:33:49Z
2021-10-30T11:35:27Z,42.805,6.029,13.3026,4.60044,2470.52,2021-10-30T13:36:52Z
2021-10-30T11:38:31Z,42.805,6.029,13.3011,4.60055,2470.497,2021-10-30T13:39:55Z
2021-10-30T11:41:34Z,42.805,6.029,13.3004,4.60055,2470.474,2021-10-30T13:42:58Z
2021-10-30T11:44:37Z,42.805,6.029,13.3014,4.60039,2470.483,2021-10-30T13:46:01Z
2021-10-30T11:47:40Z,42.805,6.029,13.3022,4.60053,2470.437,2021-10-30T13:49:05Z
2021-10-30T11:50:43Z,42.805,6.029,13.3021,4.60032,2470.497,2021-10-30T13:52:08Z
2021-10-30T11:53:46Z,42.805,6.029,13.3015,4.60033,2470.474,2021-10-30T13:55:11Z
2021-10-30T11:56:49Z,42.805,6.029,13.3024,4.60059,2470.46,2021-10-30T13:58:14Z
2021-10-30T11:59:52Z,42.805,6.029,13.3028,4.60049,2470.483,2021-10-30T14:01:17Z
2021-10-30T12:02:56Z,42.805,6.029,13.3014,4.60031,2470.46,2021-10-30T14:04:20Z
2021-10-30T12:05:59Z,42.805,6.029,13.3029,4.60035,2470.483,2021-10-30T14:07:23Z
2021-10-30T12:09:02Z,42.805,6.029,13.3009,4.60031,2470.45,2021-10-30T14:10:26Z
2021-10-30T12:12:05Z,42.805,6.029,13.3021,4.60044,2470.483,2021-10-30T14:13:30Z
2021-10-30T12:15:08Z,42.805,6.029,13.3005,4.60028,2470.507,2021-10-30T14:16:33Z
2021-10-30T12:18:11Z,42.805,6.029,13.3018,4.60027,2470.483,2021-10-30T14:19:36Z
2021-10-30T12:21:14Z,42.805,6.029,13.3015,4.60033,2470.483,2021-10-30T14:22:39Z
2021-10-30T12:24:17Z,42.805,6.029,13.3011,4.60054,2470.544,2021-10-30T14:25:42Z
2021-10-30T12:27:21Z,42.805,6.029,13.3033,4.60049,2470.483,2021-10-30T14:28:45Z
2021-10-30T12:30:24Z,42.805,6.029,13.3015,4.60046,2470.46,2021-10-30T14:31:48Z
2021-10-30T12:33:27Z,42.805,6.029,13.3021,4.60041,2470.53,2021-10-30T14:34:52Z
2021-10-30T12:36:30Z,42.805,6.029,13.3022,4.60040,2470.483,2021-10-30T14:37:55Z
2021-10-30T12:39:33Z,42.805,6.029,13.3017,4.60034,2470.507,2021-10-30T14:40:58Z
2021-10-30T12:42:36Z,42.805,6.029,13.3030,4.60039,2470.483,2021-10-30T14:44:01Z
2021-10-30T12:45:39Z,42.805,6.029,13.3006,4.60029,2470.52,2021-10-30T14:47:04Z
2021-10-30T12:48:42Z,42.805,6.029,13.3017,4.60045,2470.53,2021-10-30T14:50:07Z
2021-10-30T12:51:46Z,42.805,6.029,13.3030,4.60041,2470.497,2021-10-30T14:53:10Z
2021-10-30T12:54:49Z,42.805,6.029,13.3011,4.60040,2470.46,2021-10-30T14:56:13Z
2021-10-30T12:57:52Z,42.805,6.029,13.3022,4.60031,2470.52,2021-10-30T14:59:17Z
2021-10-30T13:00:55Z,42.805,6.029,13.3015,4.60035,2470.52,2021-10-30T15:02:20Z
2021-10-30T13:03:58Z,42.805,6.029,13.3043,4.60037,2470.52,2021-10-30T15:05:23Z
2021-10-30T13:07:01Z,42.805,6.029,13.3019,4.60044,2470.544,2021-10-30T15:08:26Z
2021-10-30T13:10:04Z,42.805,6.029,13.3006,4.60060,2470.53,2021-10-30T15:11:29Z
2021-10-30T13:13:08Z,42.805,6.029,13.3020,4.60044,2470.46,2021-10-30T15:14:32Z
2021-10-30T13:16:11Z,42.805,6.029,13.3012,4.60061,2470.553,2021-10-30T15:17:35Z
2021-10-30T13:19:14Z,42.805,6.029,13.3024,4.60028,2470.507,2021-10-30T15:20:38Z
2021-10-30T13:22:17Z,42.805,6.029,13.3012,4.60037,2470.52,2021-10-30T15:23:42Z
2021-10-30T13:25:20Z,42.805,6.029,13.3021,4.60029,2470.53,2021-10-30T15:26:45Z
2021-10-30T13:28:23Z,42.805,6.029,13.3022,4.60039,2470.53,2021-10-30T15:29:48Z
2021-10-30T13:31:26Z,42.805,6.029,13.3014,4.60073,2470.53,2021-10-30T15:32:51Z
2021-10-30T13:34:29Z,42.805,6.029,13.3011,4.60050,2470.53,2021-10-30T15:35:54Z
2021-10-30T13:37:33Z,42.805,6.029,13.3014,4.60031,2470.52,2021-10-30T15:38:57Z
2021-10-30T13:40:36Z,42.805,6.029,13.3027,4.60033,2470.553,2021-10-30T15:42:00Z
2021-10-30T13:43:39Z,42.805,6.029,13.3031,4.60031,2470.567,2021-10-30T15:45:03Z
2021-10-30T13:46:42Z,42.805,6.029,13.3002,4.60057,2470.544,2021-10-30T15:48:07Z
2021-10-30T13:49:45Z,42.805,6.029,13.3032,4.60034,2470.507,2021-10-30T15:51:10Z
2021-10-30T13:52:48Z,42.805,6.029,13.3033,4.60036,2470.544,2021-10-30T15:54:13Z
2021-10-30T13:55:51Z,42.805,6.029,13.3031,4.60049,2470.53,2021-10-30T15:57:16Z
2021-10-30T13:58:54Z,42.805,6.029,13.3012,4.60044,2470.544,2021-10-30T16:00:19Z
2021-10-30T14:01:58Z,42.805,6.029,13.3019,4.60038,2470.53,2021-10-30T16:03:22Z
2021-10-30T14:05:01Z,42.805,6.029,13.3042,4.60059,2470.53,2021-10-30T16:06:25Z
2021-10-30T14:08:04Z,42.805,6.029,13.3018,4.60052,2470.544,2021-10-30T16:09:28Z
2021-10-30T14:11:07Z,42.805,6.029,13.3021,4.60052,2470.507,2021-10-30T16:12:32Z
2021-10-30T14:14:10Z,42.805,6.029,13.3021,4.60073,2470.52,2021-10-30T16:15:35Z
2021-10-30T14:17:13Z,42.805,6.029,13.3032,4.60044,2470.567,2021-10-30T16:18:38Z
2021-10-30T14:20:16Z,42.805,6.029,13.3043,4.60033,2470.544,2021-10-30T16:21:41Z
2021-10-30T14:23:19Z,42.805,6.029,13.3019,4.60066,2470.567,2021-10-30T16:24:44Z
2021-10-30T14:26:23Z,42.805,6.029,13.3016,4.60070,2470.544,2021-10-30T16:27:47Z
2021-10-30T14:29:26Z,42.805,6.029,13.3021,4.60051,2470.544,2021-10-30T16:30:50Z
2021-10-30T14:32:29Z,42.805,6.029,13.3015,4.60046,2470.52,2021-10-30T16:33:54Z
2021-10-30T14:35:32Z,42.805,6.029,13.3006,4.60040,2470.553,2021-10-30T16:36:57Z
2021-10-30T14:38:35Z,42.805,6.029,13.3006,4.60046,2470.553,2021-10-30T16:40:00Z
2021-10-30T14:41:38Z,42.805,6.029,13.3015,4.60049,2470.553,2021-10-30T16:43:03Z
2021-10-30T14:44:41Z,42.805,6.029,13.3012,4.60046,2470.544,2021-10-30T16:46:06Z
2021-10-30T14:47:44Z,42.805,6.029,13.3013,4.60039,2470.553,2021-10-30T16:49:09Z
2021-10-30T14:50:48Z,42.805,6.029,13.3013,4.60045,2470.553,2021-10-30T16:52:12Z
2021-10-30T14:53:51Z,42.805,6.029,13.3023,4.60042,2470.553,2021-10-30T16:55:15Z
2021-10-30T14:56:54Z,42.805,6.029,13.3005,4.60050,2470.591,2021-10-30T16:58:19Z
2021-10-30T14:59:57Z,42.805,6.029,13.3015,4.60064,2470.553,2021-10-30T17:01:22Z
2021-10-30T15:03:00Z,42.805,6.029,13.3027,4.60053,2470.53,2021-10-30T17:04:25Z